Location: ???????
(55.3754°N, 39.3545°E)
Time: 19:25:54
(UTC+00:00)

Cosmos 1656 - Pass Details

Date: 14 April 2026
Orbit: 797 x 847 km, 71.1° (Epoch: 19 May)

Event Time Altitude Azimuth Distance (km) Brightness Sun altitude
Rises 21:59:21 0° 324° (NW) 3,318 7.4 -24.5°
Reaches altitude 10° 22:01:53 10° 317° (NW) 2,386 6.5 -24.4°
Enters shadow 22:06:38 40° 257° (WSW) 1,171 4.2 -24.3°
